TimeMDT,TemperatureF,Dew PointF,Humidity,Sea Level PressureIn,VisibilityMPH,Wind Direction,Wind SpeedMPH,Gust SpeedMPH,PrecipitationIn,Events,Conditions,WindDirDegrees,DateUTC
12:53 AM,35.1,18.0,50,30.29,10.0,NNE,13.8,-,N/A,,Clear,20,2012-10-06 06:53:00
1:53 AM,32.0,17.1,54,30.31,10.0,North,12.7,-,N/A,,Clear,10,2012-10-06 07:53:00
2:53 AM,32.0,17.1,54,30.31,10.0,NNE,13.8,-,N/A,,Clear,20,2012-10-06 08:53:00
3:53 AM,30.9,17.1,57,30.31,10.0,North,11.5,-,N/A,,Clear,10,2012-10-06 09:53:00
4:53 AM,30.0,16.0,56,30.32,10.0,NNE,11.5,-,N/A,,Clear,30,2012-10-06 10:53:00
5:53 AM,28.0,16.0,61,30.34,10.0,NNE,6.9,-,N/A,,Clear,30,2012-10-06 11:53:00
6:53 AM,25.0,15.1,66,30.35,10.0,NE,8.1,-,N/A,,Clear,40,2012-10-06 12:53:00
8:53 AM,30.9,16.0,54,30.38,10.0,NNE,11.5,-,N/A,,Clear,30,2012-10-06 14:53:00
9:53 AM,36.0,15.1,43,30.35,10.0,NE,15.0,-,N/A,,Clear,40,2012-10-06 15:53:00
10:53 AM,39.9,14.0,35,30.33,10.0,NE,11.5,-,N/A,,Clear,40,2012-10-06 16:53:00
11:53 AM,44.1,10.9,26,30.31,10.0,NNE,10.4,-,N/A,,Clear,30,2012-10-06 17:53:00
12:53 PM,45.0,6.1,20,30.30,10.0,Variable,4.6,-,N/A,,Clear,0,2012-10-06 18:53:00
1:53 PM,48.9,1.9,15,30.27,10.0,North,6.9,-,N/A,,Clear,350,2012-10-06 19:53:00
2:53 PM,50.0,6.1,17,30.24,10.0,WNW,6.9,-,N/A,,Clear,300,2012-10-06 20:53:00
3:53 PM,51.1,5.0,15,30.22,10.0,NW,5.8,-,N/A,,Clear,310,2012-10-06 21:53:00
4:53 PM,52.0,1.9,13,30.20,10.0,Calm,Calm,-,N/A,,Clear,0,2012-10-06 22:53:00
5:53 PM,53.1,-0.0,11,30.19,10.0,Calm,Calm,-,N/A,,Clear,0,2012-10-06 23:53:00
6:53 PM,46.9,6.1,19,30.22,10.0,Calm,Calm,-,N/A,,Clear,0,2012-10-07 00:53:00
7:53 PM,42.1,6.1,23,30.25,10.0,West,3.5,-,N/A,,Clear,280,2012-10-07 01:53:00
8:53 PM,39.0,14.0,36,30.25,10.0,Calm,Calm,-,N/A,,Clear,0,2012-10-07 02:53:00
9:30 PM,35.6,10.4,35,30.20,2.5,Calm,Calm,-,N/A,,Haze,0,2012-10-07 03:30:00
9:39 PM,37.4,10.4,33,30.20,9.0,Calm,Calm,-,N/A,,Clear,0,2012-10-07 03:39:00
9:53 PM,39.0,10.0,30,30.24,4.0,Calm,Calm,-,N/A,,Haze,0,2012-10-07 03:53:00
10:53 PM,30.9,12.0,46,30.26,10.0,North,4.6,-,N/A,,Clear,350,2012-10-07 04:53:00
11:53 PM,34.0,12.0,40,30.25,10.0,Calm,Calm,-,N/A,,Clear,0,2012-10-07 05:53:00